Starlink 35551

operational
NORAD ID: 66200 Int'l Des: 2025-243 Owner: SPXS Country: US Constellation: starlink
LEOCIRCULAR

About Starlink 35551

Description loading...

Live Position

Loading 3D Globe...

Upcoming Passes

Altitude History

Altitude vs Time

uPlot chart will show altitude changes over time

Two-Line Element Set

1 66200U 25243Z 25338.38537043 .00108914 00000-0 36292-2 0 9991
2 66200 53.1605 327.8288 0001434 90.4514 269.6651 15.30259332 6069
Epoch: Dec 4, 2025 • Age: 21 hours

Current Status

Altitude 477.1 km
Velocity 7.63 km/s
Sub-Earth Point 38.62°N, 161.62°W
Launch Date Oct 26, 2025
Age 0.1 years
Type internet

Technical Details

Classification Payload
Mass 575.00 kg
Dry Mass 530.00 kg
Total Mass 575.00 kg
Length 0.30 m
Diameter 4.10 m
Span 29.00 m
Shape Box + pan
Manufacturer SPXS
Bus Type Starlink V2MO
Phase Status In Orbit
Owner/State SPXS/US

Large Constellations

Loading constellations...